Flag for India Weather past 2 weeks in Gurgaon, Haryana, India

Now
90 °F

Haze.


Feels Like: 98 °F
Forecast: 80 / 99 °F
Wind: 3 mph from Northeast

Location: New Delhi Palam Airport

Current Time: Aug 22, 2014 at 11:44:57 PM

Latest Report: Aug 22, 2014 at 11:00 PM


Visibility: 2 mi

Pressure: 29.68 "Hg

Humidity: 59%

Dew point: 73 °F

Location of GurgaonLocation

Historic Weather in Gurgaon — Graph

°F

Gurgaon temperature yesterday

Maximum temperature yesterday: 100 °F (at 2:30 PM)
Minimum temperature yesterday: 84 °F (at 4:00 AM)
Average temperature yesterday: 91 °F

Past Weeks' High & Low Weather Summary

 TemperatureHumidityPressure
High104 °F (Aug 22, 3:00 PM)100% (Aug 10, 5:30 AM)29.80 "Hg (Aug 10, 5:30 AM)
Low79 °F (Aug 10, 1:30 PM)29% (Aug 22, 3:00 PM)29.47 "Hg (Aug 8, 5:00 PM)
Average88 °F64%29.61 "Hg
* Reported Aug 7 10:30 PM — Aug 22 10:30 PM, Gurgaon, Weather by CustomWeather, © 2014

Note: Actual official high and low records may vary slightly from our data, if they occured in-between our weather recording intervals... More about our weather records

Advertising

Gurgaon weather history for previous 24 hours

 ConditionsComfort  
Time TempWeatherWind HumidityBarometerVisibility
10:30 PM
Aug 22
90 °FHaze.5 mph55%29.68 "Hg2 mi
10:00 PM90 °FHaze.5 mph59%29.68 "Hg2 mi
9:30 PM91 °FHaze.5 mph52%29.68 "Hg2 mi
9:00 PM91 °FHaze.6 mph52%29.65 "Hg3 mi
8:30 PM93 °FHaze.6 mph47%29.65 "Hg3 mi
8:00 PM95 °FHaze.7 mph41%29.65 "Hg3 mi
7:30 PM95 °FHaze.7 mph41%29.62 "Hg3 mi
7:00 PM97 °FScattered clouds.8 mph39%29.62 "Hg3 mi
6:30 PM99 °FScattered clouds.9 mph37%29.59 "Hg3 mi
6:00 PM100 °FScattered clouds.9 mph33%29.59 "Hg3 mi
5:30 PM100 °FScattered clouds.9 mph33%29.59 "Hg3 mi
5:00 PM102 °FScattered clouds.9 mph31%29.59 "Hg3 mi
4:30 PM104 °FScattered clouds.10 mph29%29.62 "Hg3 mi
4:00 PM104 °FHaze.10 mph29%29.62 "Hg3 mi
3:30 PM104 °FHaze.9 mph29%29.62 "Hg3 mi
3:00 PM104 °FHaze.8 mph29%29.62 "Hg3 mi
2:30 PM102 °FHaze.10 mph31%29.65 "Hg3 mi
2:00 PM102 °FHaze.7 mph31%29.65 "Hg3 mi
1:00 PM100 °FHaze.7 mph33%29.68 "Hg3 mi
12:30 PM99 °FHaze.7 mph35%29.68 "Hg3 mi
11:30 AM99 °FHaze.7 mph35%29.68 "Hg3 mi
11:00 AM95 °FHaze.7 mph39%29.68 "Hg2 mi
10:30 AM93 °FHaze.7 mph47%29.68 "Hg2 mi
10:00 AM91 °FHaze.10 mph49%29.68 "Hg2 mi
9:30 AM90 °FHaze.10 mph52%29.68 "Hg2 mi
9:00 AM88 °FHaze.10 mph55%29.68 "Hg2 mi
8:30 AM86 °FHaze.10 mph59%29.68 "Hg2 mi
8:00 AM84 °FHaze.8 mph58%29.68 "Hg2 mi
7:30 AM84 °FHaze.6 mph58%29.68 "Hg2 mi
7:00 AM82 °FHaze.5 mph62%29.65 "Hg2 mi
6:30 AM81 °FHaze.3 mph66%29.65 "Hg2 mi
6:00 AM81 °FHaze.5 mph66%29.65 "Hg2 mi
5:30 AM81 °FHaze.3 mph66%29.62 "Hg2 mi
5:00 AM82 °FHaze.3 mph62%29.62 "Hg2 mi
4:30 AM82 °FHaze.3 mph62%29.62 "Hg2 mi
4:00 AM82 °FHaze.5 mph62%29.62 "Hg2 mi
3:30 AM84 °FHaze.No wind55%29.62 "Hg2 mi
3:00 AM84 °FHaze.No wind55%29.62 "Hg2 mi
2:30 AM86 °FHaze.No wind52%29.62 "Hg2 mi
2:00 AM88 °FHaze.No wind46%29.62 "Hg2 mi
1:30 AM88 °FHaze.No wind46%29.62 "Hg2 mi
1:00 AM90 °FHaze.No wind43%29.62 "Hg2 mi
12:30 AM90 °FHaze.No wind46%29.62 "Hg2 mi
12:00 AM90 °FHaze.No wind43%29.62 "Hg2 mi
11:30 PM
Aug 21
90 °FHaze.3 mph43%29.62 "Hg2 mi
11:00 PM90 °FHaze.6 mph46%29.62 "Hg2 mi
Weather by CustomWeather, © 2014

See weather overviewHow to use our weather pages